Retour au catalogue

ARIANE 44LP DEB

ActifGTO
NORAD 33541·DEBRIS·🇫🇷 France

Lancé Dec 11, 1988 depuis Guiana Space Centre

Loading…

TLE

VieillissantSource: Space-Track

Époque: Sep 14, 2026, 21:12 UTC

1 33541U 88109Q   26257.88369391  .00000003  00000-0  31561-2 0  9992
2 33541   6.6131 251.8053 7100690  35.8808  51.2102  2.23933055194337

Suivez ARIANE 44LP DEB en temps réel avec AllMySat

Download on the App Store